Location: Godzisko
(49.9648°N, 19.4576°E)
Time: 07:17:34
(UTC+00:00)

Cosmos 2221 Rocket - Pass Details

Date: 20 April 2021
Orbit: 621 x 647 km, 82.5° (Epoch: 06 May)

Event Time Altitude Azimuth Distance (km) Brightness Sun altitude
Exits shadow 01:45:08 11° 169° (S) 1,973 5.8 -16.5°
Maximum altitude 01:49:22 52° 94° (E) 802 4.4 -16.0°
Drops below altitude 10° 01:53:47 10° 19° (NNE) 2,051 7.2 -15.5°
Sets 01:56:05 0° 14° (NNE) 2,968 8.0 -15.2°
